OBJECT XJ

基本信息
目录编号:
65730
目录名称:
OBJECT XJ
国际标识:
1998-067XJ
轨道中心:
EARTH
物体状态:
已陨落(2025-12-03)
发射日期:
1998-11-20 UTC
国别:
日本 (JP)
轨道信息
数据来源: 国际轨道数据
星历时间: 2025-12-03T03:46:01+0800
半长轴: 6587.038km
偏心率: 0.0010115
轨道倾角: 51.606°
近地点辐角: 256.391°
升交点赤经: 180.465°
平近点角: 103.598°
近地点: 202.24km
远地点: 215.566km
周期: 88.674分钟
每日圈数: 16.23931
详细信息
发射场:
TTMTR
轨道高度:
LEO
数据来源:
AOE Integration Group
参考系:
TEME
时间系统:
UTC
历元类型:
SGP4
2D轨道图
3D轨道图
轨道高度分析图
轨道倾角分析图
轨道综合分析图
查看轨道综合分析图